Location: Chavannes
(47.1090°N, 0.2226°W)
Time: 14:06:30
(UTC+00:00)

Cosmos 2344 - Pass Details

Date: 16 October 2021
Orbit: 1233 x 3009 km, 63.3° (Epoch: 02 December)

Event Time Altitude Azimuth Distance (km) Brightness Sun altitude
Rises 20:01:05 0° 319° (NW) 4,485 7.3 -29.3°
Reaches altitude 10° 20:03:40 10° 320° (NW) 3,637 6.7 -29.7°
Maximum altitude 20:12:46 87° 51° (NE) 1,840 4.2 -31.2°
Enters shadow 20:16:05 54° 137° (SE) 2,307 4.4 -31.7°
